User: anonymous   Login
Location: Caltech
(34.1382°N, 118.1253°W)
Time: 22:58:06
(UTC-07:00)
Language:

CZ-4B DEB - Orbit

View from above orbital plane
View from above orbital plane
View from above satellite
View from above satellite

Ground track
Ground track

The orbit data is extracted from the following two-line orbital elements,

1 27433U 02024D   16178.93361922 +.00000072 +00000-0 +63333-4 0  9996
2 27433 098.9217 146.8654 0014320 339.1930 020.8657 14.12080742727046
Epoch (UTC): 26 June 2016 22:24:24
Eccentricity: 0.0014320
inclination: 98.9217°
perigee height: 842 km
apogee height: 862 km
right ascension of ascending node: 146.8654°
argument of perigee: 339.1930°
revolutions per day: 14.12080742
mean anomaly at epoch: 20.8657°
orbit number at epoch: 72704

The dashed part of the orbit path shows where the satellite is in the earth's shadow,  

DLR